STARLINK-34771, 65078

Orbit data source: Space-Track

STARLINK-34771, 65078 is a payload satellite owned by SpaceX/Seattle (US) in LEO that was launched on Mon, 04 Aug 2025 UTC via an FALCON 9 launch vehicle from the Air Force Eastern Test Range (AFETR). Payload-class satellites include a variety of spacecraft equipped with specific instruments for various scientific and technological missions. These include communications satellites like Starlink; space stations such as the ISS; scientific satellites like the Hubble; Earth observation satellites from companies like Planet Labs, Umbra, and HawkEye 360; GPS; miniature CubeSats for education and research; and military/defense satellites.

Loading next visibility...
Identifier
65078, 2025-167A
Orbit
LEO
Country
Flag of USUS
Related business
Manufacturer
SpaceX/Seattle
Mission
Operational Commercial Communications
Bus & Motor
STARLINK V2MO, Unknown motor
Mass
575 kg wet, ~530 kg dry
Launch date (UTC)
2025-08-04 (9 months ago)
Launch vehicle
FALCON 9
Launch site
Air Force Eastern Test Range (AFETR)
Object type
Payload
Rocket body
Debris
Shape & HBR
Box + 2 Pan, 17.7 m
Radar Cross Section
36.964 m², Large (>1 m²)

Expand to show TLE details & history
Last TLE update: 11 hours ago

TLE from 11 hours ago
0 STARLINK-34771
1 65078U 25167A   26127.26104726 -.00000230  00000-0  43547-5 0  9997
2 65078  53.1586 112.0785 0000879  75.6049 284.5049 15.30200612 42485
Epoch: 2026-05-07T06:15Z
TLE epoch observation values (Epoch: 2026-05-07T06:15:54.483Z)
Latitude
-0.00003°
Longitude
152.99174°
Altitude
475.962 km
Speed
7.629 km/s
True Right ascension
07h 28m 18s
True Declination
0° 00' 00"
Sunlit
Object was in daylight at epoch
Visualization orbit readout
Latitude
Unknown
Longitude
Unknown
Altitude
Unknown
Speed
Unknown
Apparent Right ascension
Unknown
Apparent Declination
Unknown
Sunlit
N/A
Visualization observer readout
Local Sidereal Time
00:47:52
Azimuth
Unknown
Elevation
Unknown
Doppler factor
Unknown
Orbital elements
Apogee altitude
476.072 km
Perigee altitude
474.867 km
Semi-major axis
6,853.607 km
Eccentricity
0.00009
Inclination
53.1586°
RAAN
112.0785°
Arg. of periapsis
75.6049°
True anomaly
284.49515°
Mean anomaly
284.5049°
Eccentric anomaly
284.50002°
Mean motion
3.82529 °/min
Orbital period
94.11 mins
BSTAR
0.0000043547
Loading maneuver chart data...
Computing Atmospheric mass density...
Loading historical data...
Loading historical data...
Loading historical data...
Loading historical data...
Loading historical data...
Loading historical data...
Loading historical data...

Documentation

Showing up to 5 results
|